Weather in Cherkesovsky

Russia / Volgograd Oblast     50°41′08″N   42°33′56″E
temp.,
°C
wind,
m/s
gust,
m/s
humid.,
%
clouds,
%
prec.,
mm/h
press.,
hPa
HPBL,
m
25 february, thu
thu2500:00−17s358697 0.0 1039191
03:00−15ssw488899 0.0 1037272
06:00−14ssw61094100 0.3 1034390
09:00−12ssw61194100 0.8 1032435
12:00−9ssw71194100 1.0 1029519
15:00−7sw71295100 2.2 1026545
18:00−5sw81495100 0.7 1022429
21:00−2wsw61295100 1.6 1020370
26 february, fri
fri2600:00+1w61296100 0.1 1018347
03:00+1w4999100 0.1 1018223
06:00+1wnw51198100 0.3 1017296
09:00+1w4999100 0.3 1018245
12:00+1w51199100 0.4 1017292
15:00+2w51199100 0.4 1016271
18:00+2w61499100 0.0 1014391
21:00+2w61599100 0.2 1012390
27 february, sat
sat2700:00+2wsw71595100 0.1 1010400
03:00+2w61296100 0.1 1010428
06:00+1w51193100 0.0 1008445
09:00+1w61294100 0.0 1008489
12:00+1w611100100 0.1 1007593
15:00+1w61299100 0.2 1008577
18:00+1w6139698 0.1 1007580
21:00+1wnw6119799 0.2 1007569
28 february, sun
sun2800:000wnw5119797 0.1 1007436
03:000wnw5109499 0.2 1009425
06:00−5nnw5109093 0.3 1010375
09:00−6nnw478862 0.3 1012490
12:00−6nnw468696 0.0 1014544
15:00−5nnw578598 0.1 1015632
18:00−6nnw5787100 0.1 1017620
21:00−6nnw5787100 0.1 1020641
1 march, mon
mon100:00−7nnw4788100 0.1 1021601
03:00−8nnw379395 0.1 1022390
06:00−9nnw379475 0.0 1024290
09:00−8n479074 0.0 1026512
12:00−7nnw4685100 0.1 1027621
15:00−7nnw4684100 0.1 1028627
18:00−7nnw4888100 0.0 1029589
21:00−8nw379296 0.1 1030274